(751) Faina
ephemeris date magn radius delta ra dec elong phase
Today16 Jun 202614.62.712 AU3.344 AU08h53m+29°20'44.3°15.2°
Opposition12 Apr 202713.32.940 AU1.977 AU13h50m+09°45'160.2°6.6°
(751) Faina - 2026-06-16
astro.vanbuitenen.nl


 
-1 year
-1 month
-1 day
Now
+1 day
+1 month
+1 year

The interactive orbit chart above shows the body's path through the solar system and its position at the given date. Green and blue lines are shown perpendicular to the ecliptic plane: Green if the path is above the ecliptic plane, blue if it is below. (Left-click and drag to rotate the view; Right-click and drag to move the view; Use scroll wheel to zoom in our out.)

The orbital elements of Faina are:

            e (Eccentricity)                : 0.1519564
            a (Semimajor axis)              : 2.5518239
            i (Inclination)                 : 15.58983
            Ω (Longitude of ascending node) : 78.78980
            ω (Argument of perihelion)      : 302.89022
            M (Mean anomaly)                : 104.81098
            Epoch                           : 2026 Jun 09

            L (Longitude of perihelion)     : 22.66670
            B (Latitude of perihelion)      : -13.04239
            P (Orbital period in years)     : 4.08            
        

The light curve chart below shows the estimated development of the minor planet's magnitude.


The all-sky chart below shows the path of the minor planet over the same period as the light curve. The current position is marked yellow.





The following chart shows the path of the minor planet in the next few days. The field of view is optimized for (~10x50) binoculars and finderscopes.




Ephemerides:
Date       Time       RA (2000)    DEC (2000)    delta   radius  elong  phase   PA    magn
2026-06-16 00:00 UT   08 53 39.8   +29 20 03     3.344    2.712   44.3   15.2    94   14.6 
2026-06-16 21:41 UT   08 55 09.9   +29 13 48     3.353    2.713   43.9   15.0    94   14.6 
2026-06-17 00:00 UT   08 55 19.5   +29 13 08     3.354    2.714   43.8   15.0    94   14.6 
2026-06-18 00:00 UT   08 56 59.3   +29 06 10     3.364    2.715   43.3   14.9    94   14.6 
2026-06-19 00:00 UT   08 58 39.2   +28 59 09     3.374    2.716   42.7   14.7    94   14.6 
2026-06-20 00:00 UT   09 00 19.1   +28 52 06     3.384    2.718   42.2   14.5    94   14.6 
2026-06-21 00:00 UT   09 01 59.1   +28 44 59     3.394    2.719   41.6   14.4    94   14.6 
2026-06-22 00:00 UT   09 03 39.1   +28 37 50     3.403    2.721   41.1   14.2    94   14.6 
2026-06-23 00:00 UT   09 05 19.1   +28 30 37     3.413    2.722   40.6   14.0    94   14.6 
2026-06-24 00:00 UT   09 06 59.1   +28 23 22     3.422    2.723   40.0   13.9    93   14.6 
2026-06-25 00:00 UT   09 08 39.2   +28 16 04     3.431    2.725   39.5   13.7    93   14.6 
2026-06-26 00:00 UT   09 10 19.2   +28 08 44     3.441    2.726   39.0   13.6    93   14.6 
2026-06-27 00:00 UT   09 11 59.3   +28 01 21     3.450    2.727   38.4   13.4    93   14.6 
2026-06-28 00:00 UT   09 13 39.4   +27 53 55     3.459    2.729   37.9   13.2    93   14.6 
2026-06-29 00:00 UT   09 15 19.4   +27 46 26     3.467    2.730   37.4   13.1    93   14.6 
2026-06-30 00:00 UT   09 16 59.5   +27 38 55     3.476    2.731   36.8   12.9    92   14.6 
2026-07-01 00:00 UT   09 18 39.5   +27 31 21     3.485    2.733   36.3   12.7    92   14.6 
2026-07-02 00:00 UT   09 20 19.6   +27 23 44     3.493    2.734   35.8   12.6    92   14.6 
2026-07-03 00:00 UT   09 21 59.6   +27 16 05     3.502    2.736   35.3   12.4    92   14.6 
2026-07-04 00:00 UT   09 23 39.6   +27 08 24     3.510    2.737   34.7   12.2    92   14.6 
2026-07-05 00:00 UT   09 25 19.6   +27 00 40     3.519    2.738   34.2   12.1    91   14.6 
2026-07-06 00:00 UT   09 26 59.5   +26 52 53     3.527    2.740   33.7   11.9    91   14.6 
2026-07-07 00:00 UT   09 28 39.5   +26 45 04     3.535    2.741   33.2   11.7    91   14.6 


    Terminology:
            
    delta:  distance between minor planet and earth in AU
    radius: distance between minor planet and sun in AU
    magn:   magnitude (brightness) estimate    
    ra:     right ascension in hours (24h = 360deg)
    dec:    declination in degrees
    elong:  elongation in degrees (angle sun-earth-minor planet)    
    phase:  phase angle in degrees (angle sun-minor planet-earth)        
    AU:     Astronomical Unit (mean distance between earth and sun: 149597870.7 km
    

Orbital elements provided by the MPC (Minor Planet Center).
Calculations by a modified version of AAPlus, a C# implementation of the AA+ project by PJ Naughter from the algorithms presented in the book "Astronomical Algorithms" by Jean Meeus.
NGC2000 dso catalog and star labels from VizieR as provided by the Strasbourg astronomical Data Center.
Tycho2 catalog from the ESO archive.